Location: Vassar Physics Lab
(41.6843°N, 73.8954°W)
Time: 00:27:45
(UTC-05:00)

Daily predictions for brighter satellites

Satellite Brightness Start Highest point End
(mag) Time Altitude Azimuth Time Altitude Azimuth Time Altitude Azimuth
Cosmos 2369 Rocket 4.0 03:14:21 26° NNE 03:14:21 26° NNE 03:16:47 10° NNE
Lacrosse 5 3.6 03:28:19 29° ENE 03:28:19 29° ENE 03:30:51 10° NE
ADEOS Rocket 4.4 03:30:40 10° N 03:33:58 29° N 03:33:58 29° N
USA 234 3.9 03:34:42 10° ENE 03:40:57 46° SE 03:41:54 44° SSE
ATLAS 5 CENTAUR R/B 3.2 03:46:24 34° NNE 03:46:24 34° NNE 03:49:22 10° NE
Cosmos 1943 Rocket 2.6 03:51:54 57° NE 03:51:54 57° NE 03:56:20 10° NNE
CZ-4C R/B 3.1 03:54:45 38° SE 03:55:38 41° ESE 04:01:02 10° NE
Cosmos 1452 Rocket 4.2 04:02:10 43° SE 04:03:21 52° ESE 04:08:29 10° NNE
CZ-4B R/B 3.2 03:58:06 10° NNE 04:03:30 82° NNE 04:03:30 82° NNE
Lacrosse 5 rocket 3.8 04:12:43 13° NNE 04:13:08 13° NNE 04:14:54 10° NE
ADEOS II 2.1 04:09:27 10° N 04:14:12 69° NNW 04:14:12 69° NNW
Okean O Rocket 3.7 04:18:43 10° N 04:19:45 16° N 04:19:45 16° N
Cosmos 676 Rocket 3.9 04:20:01 29° NNW 04:22:49 87° WSW 04:28:09 10° SSE
Meteor 1-14 Rocket 4.4 04:23:06 10° N 04:28:56 74° E 04:34:35 10° SSE
COSMO-SKYMED 1 4.3 04:28:12 10° SE 04:32:03 32° ENE 04:35:56 10° N
Cosmos 1140 Rocket 3.7 04:26:54 10° NNW 04:32:09 69° ENE 04:37:21 10° SSE
Cosmos 2221 Rocket 3.5 04:38:26 28° S 04:40:50 88° W 04:45:24 10° N
Meteor 1-26 Rocket 4.1 04:41:38 19° SSW 04:45:42 68° WNW 04:51:18 10° N
Okean 1-7 2.8 04:45:42 20° S 04:48:36 85° W 04:52:53 10° N
Meteor 1-25 Rocket 4.4 04:46:03 10° N 04:51:55 81° E 04:57:46 10° SSE
Cosmos 1656 Rocket 3.6 04:50:01 26° SW 04:53:15 69° WNW 04:58:56 10° NNE
Cosmos 2219 3.1 04:48:35 10° NNW 04:54:18 88° ENE 04:59:56 10° SSE
Cosmos 2369 Rocket 3.7 04:56:09 18° NW 04:56:09 18° NW 04:59:37 10° N
Meteor 1-31 Rocket 2.7 04:53:37 10° N 04:57:27 58° WNW 04:58:26 43° SW
Cosmos 2227 Rocket 3.9 04:53:07 10° N 04:58:12 32° ENE 05:03:14 10° ESE
GEOS 3 Rocket 4.0 04:56:40 10° S 05:01:23 38° WSW 05:02:58 31° W
ATLAS CENTAUR R/B 4.3 04:59:20 27° W 05:02:14 35° SW 05:16:55 10° S
Abrixas 4.3 05:02:41 20° N 05:02:51 20° N 05:05:07 10° NE
Cosmos 1850 Rocket 4.0 05:00:03 10° NNW 05:05:26 86° ENE 05:10:44 10° SSE
Cosmos 1782 Rocket 3.8 05:03:10 10° NNW 05:07:25 44° W 05:11:37 10° SSW
Cosmos 1745 Rocket 3.9 05:01:20 10° N 05:07:31 85° W 05:13:38 10° S
Cosmos 1417 Rocket 4.5 05:01:50 10° SSW 05:07:52 56° W 05:13:55 10° N
Lacrosse 5 2.9 05:07:31 25° WNW 05:09:07 30° NNW 05:13:35 10° NNE
Cosmos 1954 Rocket 4.4 05:06:36 10° NW 05:11:32 40° WSW 05:16:27 10° S
Cosmos 546 4.5 05:12:59 30° WNW 05:14:47 79° SW 05:18:37 10° SE
Ariane Rocket 4.1 05:10:38 10° NNE 05:15:33 47° E 05:20:25 10° S
Meteor 1-10 Rocket 4.2 05:12:58 10° S 05:18:31 85° E 05:24:13 10° N
Cosmos 1420 Rocket 4.1 05:13:57 10° SW 05:18:59 54° WNW 05:24:05 10° N
SKYMED 2 3.4 05:15:39 10° S 05:19:59 76° W 05:24:20 10° NNW
Meteor 2-10 Rocket 4.1 05:17:38 19° WSW 05:20:20 32° WNW 05:24:52 10° N
Cosmos 1633 3.9 05:17:11 10° N 05:20:41 42° E 05:24:07 10° SSE
CZ-4 R/B 4.4 05:17:34 10° NE 05:20:43 20° E 05:23:47 10° SE
Okean-O 3.2 05:16:42 10° N 05:20:44 35° WNW 05:23:59 14° SW
ERS-2 4.2 05:21:00 10° NNW 05:21:59 14° NW 05:21:59 14° NW
NOAA 6 4.0 05:18:21 10° N 05:23:26 63° WNW 05:28:30 10° SSW
USA 234 3.5 05:17:40 10° NE 05:24:00 56° NNW 05:29:16 15° WSW
Tiangong 1 0.9 05:24:16 32° W 05:25:25 71° N 05:28:21 10° E
IDEFIX/ARIANE 42P 4.5 05:22:32 10° NNE 05:27:14 33° E 05:31:54 10° SSE
ATLAS 5 CENTAUR R/B 3.6 05:27:58 14° WNW 05:29:48 17° NNW 05:33:09 10° N
Cosmos 1674 Rocket 4.0 05:27:53 10° S 05:32:14 68° E 05:36:40 10° NNE
Cosmos 1943 Rocket 3.7 05:33:27 15° WNW 05:35:13 17° NW 05:38:46 10° N
Okean 2 Rocket 3.8 05:32:07 10° NNW 05:35:54 29° W 05:39:42 10° SSW
Radarsat Rocket 4.3 05:30:18 10° NNE 05:37:31 69° WNW 05:43:49 10° SSW
DMSP B5D1-3 4.4 05:33:08 10° S 05:38:12 69° WSW 05:43:18 10° NNW
Thor Agena Rocket 4.4 05:36:18 10° SSW 05:40:44 28° W 05:45:09 10° NW
CZ-4C R/B 3.0 05:39:58 13° WSW 05:44:11 34° NW 05:49:44 10° NNE
Meteor 1-28 Rocket 3.3 05:41:22 10° S 05:44:58 49° W 05:48:37 10° NNW
Cosmos 1607 3.9 05:39:04 10° SW 05:45:10 77° WNW 05:51:23 10° NNE
Cosmos 1536 4.0 05:43:13 10° N 05:47:05 47° E 05:50:58 10° SSE
ATLAS 3B R/B 2.9 05:41:14 10° SW 05:48:49 78° NW 05:56:09 10° NNE
Cosmos 1110 Rocket 4.0 05:46:26 10° SSW 05:51:35 89° ESE 05:56:48 10° NNE
Okean 1 Rocket 3.5 05:48:01 10° N 05:52:26 69° E 05:56:46 10° SSE
Lacrosse 5 rocket 1.4 05:49:25 10° NW 05:53:00 62° NE 05:56:34 10° SE
ADEOS II 3.9 05:52:26 10° NW 05:53:33 11° WNW 05:54:41 10° WNW
Meteor 1-27 Rocket 3.8 05:48:11 10° SSW 05:53:57 82° W 05:59:54 10° N
Cosmos 2151 Rocket 4.1 05:51:25 10° NNW 05:55:36 39° W 05:59:45 10° SSW
CSL-04 Rocket 3.7 05:50:29 10° NNE 05:55:53 86° WNW 06:01:21 10° SSW
SJ-12 4.5 05:55:10 10° NNE 05:59:15 64° E 06:03:20 10° S
Cosmos 2082 3.8 05:53:48 10° NNW 05:59:30 83° ENE 06:05:08 10° SSE
COSMO-SKYMED 1 3.7 06:04:50 10° SSW 06:08:15 22° W 06:11:40 10° NW
Cosmos 1606 3.9 06:07:11 10° SW 06:10:19 23° WNW 06:13:30 10° NNW
Cosmos 1602 4.1 06:06:48 10° NNW 06:10:35 45° W 06:14:22 10° SSW
Cosmos 1302 Rocket 4.5 06:07:18 10° S 06:12:33 70° ESE 06:17:49 10° NNE
